Starlink 35067

operational
NORAD ID: 65527 Int'l Des: 2025-200 Owner: SPXS Country: US Constellation: starlink
LEOCIRCULARRETROGRADESSO

About Starlink 35067

Description loading...

Live Position

Loading 3D Globe...

Upcoming Passes

Altitude History

Altitude vs Time

uPlot chart will show altitude changes over time

Two-Line Element Set

1 65527U 25200H 26103.15223433 .00003126 00000-0 22077-3 0 9992
2 65527 97.6023 173.7252 0000503 194.1261 165.9951 15.05653790 34311
Epoch: Apr 13, 2026 • Age: 5 hours

Current Status

Altitude 554.8 km
Velocity 7.59 km/s
Sub-Earth Point 35.98°N, 162.13°W
Launch Date Sep 6, 2025
Age 0.5 years
Type internet

Technical Details

Classification Payload
Mass 575.00 kg
Dry Mass 530.00 kg
Total Mass 575.00 kg
Length 0.30 m
Diameter 4.10 m
Span 29.00 m
Shape Box + pan
Manufacturer SPXS
Bus Type Starlink V2MO
Phase Status In Orbit
Owner/State SPXS/US

Large Constellations

Loading constellations...